CSN6631 ZHCC-ZLYL

Flight info

Callsign CSN6631
Flight time 1h 6m
Altitude 25600
Route NOPIN B208 TYN W87 GODON B215 APOGO
Aircraft A320/M-SDE3FGHIRWY/LB1

Departure

Time 2026-05-07 07:31
Airport Zhengzhou Xinzheng International Airport (ZHCC)

Arrival

Time 2026-05-07 08:38
Airport Yulin Yuyang Airport (ZLYL)
Time Latitude Longitude Altitude Speed Heading
2026-05-07 06:55 34.53004 113.85133 505 ft 0 kts 22°
2026-05-07 06:59 34.53006 113.85134 505 ft 1 kts 22°
2026-05-07 06:59 34.53020 113.85141 505 ft 3 kts 22°
2026-05-07 06:59 34.53049 113.85156 505 ft 6 kts 22°
2026-05-07 06:59 34.53093 113.85178 505 ft 8 kts 22°
2026-05-07 07:00 34.53155 113.85208 505 ft 11 kts 22°
2026-05-07 07:00 34.53222 113.85241 505 ft 8 kts 22°
2026-05-07 07:00 34.53255 113.85271 505 ft 5 kts 68°
2026-05-07 07:00 34.53243 113.85333 504 ft 9 kts 110°
2026-05-07 07:01 34.53217 113.85414 504 ft 11 kts 112°
2026-05-07 07:01 34.53183 113.85511 505 ft 13 kts 112°
2026-05-07 07:01 34.53146 113.85621 505 ft 14 kts 112°
2026-05-07 07:01 34.53122 113.85689 505 ft 7 kts 112°
2026-05-07 07:02 34.53116 113.85708 505 ft 0 kts 112°
2026-05-07 07:21 34.53116 113.85709 505 ft 1 kts 112°
2026-05-07 07:21 34.53106 113.85736 505 ft 5 kts 112°
2026-05-07 07:22 34.53089 113.85786 505 ft 7 kts 112°
2026-05-07 07:22 34.53075 113.85854 505 ft 10 kts 81°
2026-05-07 07:22 34.53127 113.85911 504 ft 9 kts 60°
2026-05-07 07:22 34.53109 113.85997 504 ft 12 kts 112°
2026-05-07 07:23 34.53080 113.86083 503 ft 11 kts 112°
2026-05-07 07:23 34.53048 113.86176 503 ft 13 kts 112°
2026-05-07 07:23 34.53011 113.86286 503 ft 15 kts 112°
2026-05-07 07:23 34.52974 113.86395 503 ft 15 kts 112°
2026-05-07 07:24 34.52932 113.86517 502 ft 17 kts 112°
2026-05-07 07:24 34.52893 113.86632 502 ft 15 kts 112°
2026-05-07 07:24 34.52852 113.86752 502 ft 15 kts 112°
2026-05-07 07:24 34.52809 113.86878 502 ft 17 kts 112°
2026-05-07 07:25 34.52716 113.87148 503 ft 19 kts 112°
2026-05-07 07:25 34.52670 113.87287 503 ft 18 kts 112°
2026-05-07 07:25 34.52626 113.87415 503 ft 17 kts 112°
2026-05-07 07:26 34.52583 113.87542 503 ft 10 kts 112°
2026-05-07 07:26 34.52592 113.87608 502 ft 8 kts 36°
2026-05-07 07:26 34.52609 113.87617 501 ft 0 kts 22°
2026-05-07 07:29 34.52610 113.87617 501 ft 1 kts 22°
2026-05-07 07:29 34.52635 113.87630 499 ft 7 kts 22°
2026-05-07 07:29 34.52698 113.87660 489 ft 11 kts 22°
2026-05-07 07:30 34.52737 113.87636 495 ft 7 kts 291°
2026-05-07 07:30 34.52768 113.87538 491 ft 27 kts 292°
2026-05-07 07:30 34.52934 113.87059 489 ft 95 kts 292°
2026-05-07 07:30 34.53256 113.86109 497 ft 144 kts 291°
2026-05-07 07:31 34.53678 113.84843 639 ft 171 kts 293°
2026-05-07 07:31 34.54118 113.83530 1311 ft 168 kts 296°
2026-05-07 07:31 34.54563 113.82228 2068 ft 166 kts 298°
2026-05-07 07:31 34.55016 113.80923 2628 ft 172 kts 297°
2026-05-07 07:32 34.55474 113.79584 3154 ft 173 kts 298°
2026-05-07 07:32 34.55944 113.78230 3628 ft 179 kts 296°
2026-05-07 07:32 34.56453 113.76757 3880 ft 199 kts 296°
2026-05-07 07:32 34.56828 113.75674 4075 ft 214 kts 296°
2026-05-07 07:33 34.57644 113.73289 4584 ft 244 kts 295°
2026-05-07 07:33 34.58085 113.71983 5079 ft 248 kts 295°
2026-05-07 07:33 34.58935 113.69439 6482 ft 242 kts 295°
2026-05-07 07:33 34.59350 113.68197 7199 ft 239 kts 296°
2026-05-07 07:34 34.60137 113.66446 8084 ft 236 kts 314°
2026-05-07 07:34 34.61455 113.65254 8782 ft 245 kts 338°
2026-05-07 07:34 34.63176 113.64929 9365 ft 260 kts
2026-05-07 07:34 34.64928 113.65582 10159 ft 268 kts 18°
2026-05-07 07:35 34.66667 113.66452 10904 ft 272 kts 18°
2026-05-07 07:35 34.68434 113.67333 11618 ft 277 kts 15°
2026-05-07 07:35 34.70290 113.67973 12306 ft 280 kts
2026-05-07 07:35 34.72200 113.68572 13018 ft 286 kts
2026-05-07 07:36 34.74141 113.69176 13732 ft 291 kts
2026-05-07 07:36 34.76120 113.69789 14378 ft 296 kts
2026-05-07 07:36 34.78138 113.70413 15017 ft 302 kts
2026-05-07 07:36 34.80243 113.71061 15235 ft 323 kts
2026-05-07 07:37 34.82500 113.71749 15360 ft 346 kts
2026-05-07 07:37 34.84912 113.72233 15668 ft 355 kts 359°
2026-05-07 07:37 34.87381 113.72129 16225 ft 356 kts 348°
2026-05-07 07:37 34.89783 113.71419 16821 ft 356 kts 337°
2026-05-07 07:38 34.92121 113.70389 17443 ft 360 kts 336°
2026-05-07 07:38 34.94492 113.69340 18083 ft 364 kts 336°
2026-05-07 07:38 34.96883 113.68281 18680 ft 368 kts 336°
2026-05-07 07:38 34.99301 113.67209 19258 ft 371 kts 335°
2026-05-07 07:39 35.01738 113.66132 19861 ft 375 kts 335°
2026-05-07 07:39 35.04206 113.65043 20481 ft 378 kts 335°
2026-05-07 07:39 35.06662 113.63963 21090 ft 382 kts 335°
2026-05-07 07:39 35.09175 113.62856 21673 ft 386 kts 334°
2026-05-07 07:40 35.11709 113.61738 22235 ft 390 kts 334°
2026-05-07 07:40 35.14280 113.60599 22781 ft 394 kts 334°
2026-05-07 07:40 35.16873 113.59448 23333 ft 399 kts 334°
2026-05-07 07:40 35.19498 113.58282 23833 ft 403 kts 333°
2026-05-07 07:41 35.22151 113.57101 24306 ft 407 kts 333°
2026-05-07 07:41 35.24819 113.55917 24807 ft 410 kts 333°
2026-05-07 07:41 35.27502 113.54728 25318 ft 412 kts 333°
2026-05-07 07:41 35.30219 113.53528 25648 ft 414 kts 333°
2026-05-07 07:42 35.32924 113.52334 25739 ft 415 kts 333°
2026-05-07 07:42 35.35641 113.51132 25762 ft 416 kts 333°
2026-05-07 07:42 35.38368 113.49922 25755 ft 416 kts 332°
2026-05-07 07:42 35.41088 113.48709 25759 ft 416 kts 332°
2026-05-07 07:43 35.43804 113.47498 25757 ft 415 kts 332°
2026-05-07 07:43 35.46523 113.46284 25758 ft 414 kts 332°
2026-05-07 07:43 35.49231 113.45080 25764 ft 414 kts 332°
2026-05-07 07:43 35.51941 113.43881 25765 ft 413 kts 332°
2026-05-07 07:44 35.54646 113.42687 25764 ft 412 kts 332°
2026-05-07 07:44 35.57341 113.41494 25765 ft 412 kts 332°
2026-05-07 07:44 35.60040 113.40298 25769 ft 412 kts 332°
2026-05-07 07:44 35.62733 113.39102 25774 ft 412 kts 332°
2026-05-07 07:45 35.65429 113.37902 25777 ft 411 kts 332°
2026-05-07 07:45 35.68117 113.36704 25779 ft 411 kts 332°
2026-05-07 07:45 35.70766 113.35520 25779 ft 411 kts 332°
2026-05-07 07:45 35.73454 113.34318 25778 ft 411 kts 332°
2026-05-07 07:46 35.76137 113.33116 25783 ft 410 kts 332°
2026-05-07 07:46 35.78854 113.31898 25782 ft 410 kts 332°
2026-05-07 07:46 35.81496 113.30715 25788 ft 410 kts 332°
2026-05-07 07:46 35.84176 113.29517 25786 ft 409 kts 332°
2026-05-07 07:47 35.86852 113.28322 25790 ft 409 kts 332°
2026-05-07 07:47 35.89520 113.27130 25793 ft 408 kts 332°
2026-05-07 07:47 35.92187 113.25942 25795 ft 407 kts 332°
2026-05-07 07:47 35.94853 113.24757 25795 ft 406 kts 332°
2026-05-07 07:48 35.97512 113.23574 25791 ft 405 kts 332°
2026-05-07 07:48 36.00169 113.22387 25794 ft 405 kts 332°
2026-05-07 07:48 36.02812 113.21204 25793 ft 404 kts 332°
2026-05-07 07:48 36.05451 113.20020 25795 ft 403 kts 332°
2026-05-07 07:49 36.08084 113.18836 25790 ft 402 kts 332°
2026-05-07 07:49 36.10713 113.17655 25788 ft 401 kts 332°
2026-05-07 07:49 36.13329 113.16480 25785 ft 400 kts 332°
2026-05-07 07:49 36.15943 113.15306 25785 ft 399 kts 332°
2026-05-07 07:50 36.18551 113.14134 25787 ft 399 kts 332°
2026-05-07 07:50 36.21160 113.12960 25786 ft 398 kts 332°
2026-05-07 07:50 36.23755 113.11799 25787 ft 398 kts 333°
2026-05-07 07:50 36.26443 113.10872 25785 ft 401 kts 336°
2026-05-07 07:51 36.29137 113.09995 25785 ft 401 kts 336°
2026-05-07 07:51 36.31836 113.09118 25790 ft 400 kts 336°
2026-05-07 07:51 36.34526 113.08245 25789 ft 399 kts 336°
2026-05-07 07:51 36.37211 113.07376 25789 ft 398 kts 336°
2026-05-07 07:52 36.39888 113.06509 25788 ft 397 kts 336°
2026-05-07 07:52 36.42561 113.05645 25788 ft 397 kts 336°
2026-05-07 07:52 36.45234 113.04782 25785 ft 396 kts 336°
2026-05-07 07:52 36.47898 113.03919 25784 ft 396 kts 336°
2026-05-07 07:53 36.50559 113.03052 25786 ft 395 kts 336°
2026-05-07 07:53 36.53222 113.02183 25782 ft 395 kts 336°
2026-05-07 07:53 36.55879 113.01315 25781 ft 395 kts 336°
2026-05-07 07:53 36.58497 113.00460 25781 ft 394 kts 336°
2026-05-07 07:54 36.61186 112.99583 25778 ft 394 kts 336°
2026-05-07 07:54 36.63805 112.98726 25781 ft 394 kts 336°
2026-05-07 07:54 36.66491 112.97845 25778 ft 394 kts 336°
2026-05-07 07:54 36.69140 112.96977 25778 ft 393 kts 337°
2026-05-07 07:55 36.71787 112.96111 25774 ft 393 kts 336°
2026-05-07 07:55 36.74433 112.95245 25779 ft 393 kts 336°
2026-05-07 07:55 36.77040 112.94393 25779 ft 393 kts 336°
2026-05-07 07:55 36.79690 112.93524 25780 ft 393 kts 336°
2026-05-07 07:56 36.82336 112.92657 25776 ft 393 kts 337°
2026-05-07 07:56 36.84980 112.91788 25779 ft 393 kts 336°
2026-05-07 07:56 36.87625 112.90915 25779 ft 393 kts 336°
2026-05-07 07:56 36.90266 112.90041 25780 ft 393 kts 336°
2026-05-07 07:57 36.92903 112.89167 25778 ft 392 kts 337°
2026-05-07 07:57 36.95544 112.88293 25776 ft 392 kts 337°
2026-05-07 07:57 36.98181 112.87422 25782 ft 392 kts 337°
2026-05-07 07:57 37.00820 112.86551 25783 ft 392 kts 337°
2026-05-07 07:58 37.03453 112.85682 25780 ft 392 kts 337°
2026-05-07 07:58 37.06090 112.84812 25783 ft 391 kts 337°
2026-05-07 07:58 37.08721 112.83946 25784 ft 391 kts 337°
2026-05-07 07:58 37.11351 112.83078 25785 ft 391 kts 337°
2026-05-07 07:59 37.13982 112.82209 25785 ft 390 kts 337°
2026-05-07 07:59 37.16608 112.81342 25785 ft 390 kts 337°
2026-05-07 07:59 37.19229 112.80475 25796 ft 390 kts 337°
2026-05-07 07:59 37.21853 112.79605 25790 ft 389 kts 337°
2026-05-07 08:00 37.24467 112.78740 25794 ft 389 kts 337°
2026-05-07 08:00 37.27088 112.77871 25795 ft 389 kts 337°
2026-05-07 08:00 37.29699 112.77003 25795 ft 388 kts 337°
2026-05-07 08:00 37.32307 112.76133 25798 ft 388 kts 337°
2026-05-07 08:01 37.34919 112.75265 25803 ft 388 kts 337°
2026-05-07 08:01 37.37525 112.74400 25790 ft 387 kts 337°
2026-05-07 08:01 37.40129 112.73535 25787 ft 387 kts 337°
2026-05-07 08:01 37.42728 112.72670 25795 ft 386 kts 337°
2026-05-07 08:02 37.45328 112.71803 25786 ft 386 kts 337°
2026-05-07 08:02 37.47922 112.70940 25799 ft 385 kts 337°
2026-05-07 08:02 37.50513 112.70078 25794 ft 385 kts 337°
2026-05-07 08:02 37.53098 112.69217 25796 ft 385 kts 337°
2026-05-07 08:03 37.55649 112.68363 25786 ft 384 kts 337°
2026-05-07 08:03 37.58233 112.67492 25787 ft 384 kts 337°
2026-05-07 08:03 37.60811 112.66623 25785 ft 384 kts 337°
2026-05-07 08:03 37.63388 112.65753 25785 ft 383 kts 337°
2026-05-07 08:04 37.65949 112.64860 25789 ft 382 kts 336°
2026-05-07 08:04 37.68506 112.63941 25788 ft 381 kts 336°
2026-05-07 08:04 37.70927 112.62705 25788 ft 370 kts 324°
2026-05-07 08:04 37.72955 112.60781 25785 ft 362 kts 312°
2026-05-07 08:05 37.74512 112.58311 25780 ft 359 kts 300°
2026-05-07 08:05 37.75527 112.55436 25774 ft 360 kts 288°
2026-05-07 08:05 37.75963 112.52308 25765 ft 363 kts 279°
2026-05-07 08:05 37.76226 112.49137 25759 ft 363 kts 280°
2026-05-07 08:06 37.76492 112.45966 25754 ft 363 kts 280°
2026-05-07 08:06 37.76761 112.42787 25749 ft 364 kts 279°
2026-05-07 08:06 37.77032 112.39607 25745 ft 364 kts 280°
2026-05-07 08:06 37.77305 112.36425 25742 ft 365 kts 280°
2026-05-07 08:07 37.77583 112.33242 25740 ft 365 kts 280°
2026-05-07 08:07 37.77883 112.30062 25741 ft 365 kts 281°
2026-05-07 08:07 37.78197 112.26889 25737 ft 365 kts 281°
2026-05-07 08:07 37.78518 112.23706 25741 ft 365 kts 281°
2026-05-07 08:08 37.78836 112.20528 25741 ft 365 kts 281°
2026-05-07 08:08 37.79152 112.17335 25739 ft 365 kts 281°
2026-05-07 08:08 37.79461 112.14162 25741 ft 364 kts 281°
2026-05-07 08:08 37.79769 112.10974 25740 ft 365 kts 281°
2026-05-07 08:09 37.80076 112.07788 25739 ft 366 kts 281°
2026-05-07 08:09 37.80381 112.04593 25742 ft 366 kts 281°
2026-05-07 08:09 37.80683 112.01414 25739 ft 366 kts 281°
2026-05-07 08:09 37.80986 111.98211 25738 ft 366 kts 281°
2026-05-07 08:10 37.81287 111.95019 25737 ft 366 kts 281°
2026-05-07 08:10 37.81588 111.91831 25741 ft 366 kts 281°
2026-05-07 08:10 37.81889 111.88622 25743 ft 366 kts 281°
2026-05-07 08:10 37.82189 111.85422 25741 ft 367 kts 281°
2026-05-07 08:11 37.82492 111.82212 25744 ft 366 kts 281°
2026-05-07 08:11 37.82783 111.79069 25467 ft 357 kts 281°
2026-05-07 08:11 37.83069 111.75951 24973 ft 355 kts 281°
2026-05-07 08:11 37.83356 111.72851 24454 ft 355 kts 281°
2026-05-07 08:12 37.83652 111.69753 23908 ft 355 kts 282°
2026-05-07 08:12 37.83981 111.66649 23290 ft 356 kts 283°
2026-05-07 08:12 37.84328 111.63552 22750 ft 355 kts 283°
2026-05-07 08:12 37.84678 111.60471 22208 ft 354 kts 283°
2026-05-07 08:13 37.85025 111.57391 21688 ft 353 kts 283°
2026-05-07 08:13 37.85363 111.54318 21211 ft 352 kts 283°
2026-05-07 08:13 37.85696 111.51254 20704 ft 351 kts 283°
2026-05-07 08:13 37.86019 111.48198 20199 ft 351 kts 283°
2026-05-07 08:14 37.86307 111.45128 19693 ft 349 kts 282°
2026-05-07 08:14 37.86572 111.42071 19175 ft 349 kts 282°
2026-05-07 08:14 37.86828 111.39022 18722 ft 348 kts 282°
2026-05-07 08:14 37.87083 111.35975 18218 ft 347 kts 282°
2026-05-07 08:15 37.87339 111.32934 17584 ft 348 kts 282°
2026-05-07 08:15 37.87593 111.29945 17130 ft 345 kts 282°
2026-05-07 08:15 37.87855 111.26902 16595 ft 343 kts 282°
2026-05-07 08:15 37.88113 111.23939 16103 ft 342 kts 282°
2026-05-07 08:16 37.88371 111.20952 15611 ft 341 kts 282°
2026-05-07 08:16 37.88630 111.17975 15108 ft 340 kts 281°
2026-05-07 08:16 37.88885 111.14997 14656 ft 339 kts 281°
2026-05-07 08:16 37.89136 111.12039 14188 ft 338 kts 281°
2026-05-07 08:17 37.89388 111.09074 13669 ft 338 kts 281°
2026-05-07 08:17 37.89639 111.06114 13179 ft 336 kts 281°
2026-05-07 08:17 37.89887 111.03187 12718 ft 334 kts 281°
2026-05-07 08:17 37.90135 111.00258 12252 ft 333 kts 282°
2026-05-07 08:18 37.90381 110.97358 11794 ft 331 kts 281°
2026-05-07 08:18 37.90543 110.95436 11495 ft 331 kts 282°
2026-05-07 08:18 37.90868 110.91578 10909 ft 328 kts 281°
2026-05-07 08:18 37.91025 110.89683 10735 ft 324 kts 281°
2026-05-07 08:19 37.91253 110.86904 10667 ft 311 kts 281°
2026-05-07 08:19 37.91469 110.84239 10664 ft 298 kts 281°
2026-05-07 08:19 37.91676 110.81682 10668 ft 286 kts 282°
2026-05-07 08:19 37.91883 110.79192 10662 ft 283 kts 282°
2026-05-07 08:20 37.92092 110.76707 10667 ft 284 kts 282°
2026-05-07 08:20 37.92299 110.74223 10663 ft 283 kts 282°
2026-05-07 08:20 37.92507 110.71742 10602 ft 283 kts 282°
2026-05-07 08:20 37.92721 110.69282 10474 ft 280 kts 284°
2026-05-07 08:21 37.93128 110.66884 10350 ft 276 kts 291°
2026-05-07 08:21 37.93777 110.64617 10225 ft 272 kts 299°
2026-05-07 08:21 37.94634 110.62498 10104 ft 269 kts 303°
2026-05-07 08:21 37.95522 110.60418 9976 ft 268 kts 303°
2026-05-07 08:22 37.96393 110.58362 9844 ft 268 kts 302°
2026-05-07 08:22 37.97285 110.56250 9710 ft 269 kts 302°
2026-05-07 08:22 37.98168 110.54162 9573 ft 269 kts 302°
2026-05-07 08:22 37.99040 110.52098 9449 ft 269 kts 302°
2026-05-07 08:23 37.99925 110.49996 9314 ft 270 kts 302°
2026-05-07 08:23 38.00810 110.47891 9184 ft 270 kts 302°
2026-05-07 08:23 38.01694 110.45790 9050 ft 270 kts 301°
2026-05-07 08:23 38.02576 110.43691 8921 ft 270 kts 301°
2026-05-07 08:24 38.03458 110.41590 8790 ft 271 kts 301°
2026-05-07 08:24 38.04346 110.39477 8659 ft 271 kts 301°
2026-05-07 08:24 38.05234 110.37364 8520 ft 271 kts 301°
2026-05-07 08:24 38.06119 110.35261 8399 ft 271 kts 300°
2026-05-07 08:25 38.07010 110.33146 8269 ft 271 kts 301°
2026-05-07 08:25 38.07898 110.31038 8142 ft 271 kts 301°
2026-05-07 08:25 38.08790 110.28918 8006 ft 272 kts 300°
2026-05-07 08:25 38.09676 110.26807 7886 ft 272 kts 300°
2026-05-07 08:26 38.11451 110.22560 7651 ft 273 kts 300°
2026-05-07 08:26 38.12343 110.20426 7549 ft 273 kts 300°
2026-05-07 08:26 38.13229 110.18303 7446 ft 273 kts 300°
2026-05-07 08:27 38.14120 110.16167 7350 ft 273 kts 299°
2026-05-07 08:27 38.15010 110.14032 7255 ft 272 kts 299°
2026-05-07 08:27 38.15897 110.11906 7147 ft 272 kts 299°
2026-05-07 08:27 38.16786 110.09781 7045 ft 272 kts 299°
2026-05-07 08:28 38.17676 110.07652 6944 ft 273 kts 299°
2026-05-07 08:28 38.18562 110.05529 6847 ft 273 kts 299°
2026-05-07 08:28 38.19447 110.03407 6769 ft 267 kts 298°
2026-05-07 08:28 38.20300 110.01350 6754 ft 259 kts 299°
2026-05-07 08:29 38.21006 109.99284 6758 ft 252 kts 289°
2026-05-07 08:29 38.21388 109.97149 6745 ft 244 kts 278°
2026-05-07 08:29 38.21471 109.95041 6749 ft 233 kts 269°
2026-05-07 08:29 38.21334 109.93041 6746 ft 221 kts 265°
2026-05-07 08:30 38.21188 109.91150 6737 ft 215 kts 266°
2026-05-07 08:30 38.21044 109.89247 6740 ft 212 kts 266°
2026-05-07 08:30 38.20904 109.87407 6721 ft 212 kts 265°
2026-05-07 08:30 38.20764 109.85595 6702 ft 199 kts 265°
2026-05-07 08:31 38.20632 109.83894 6640 ft 187 kts 265°
2026-05-07 08:31 38.20507 109.82298 6583 ft 176 kts 266°
2026-05-07 08:31 38.20389 109.80782 6530 ft 170 kts 265°
2026-05-07 08:31 38.20272 109.79294 6477 ft 168 kts 265°
2026-05-07 08:32 38.20159 109.77818 6428 ft 168 kts 265°
2026-05-07 08:32 38.20046 109.76348 6376 ft 167 kts 265°
2026-05-07 08:32 38.19934 109.74876 6321 ft 167 kts 265°
2026-05-07 08:32 38.19819 109.73412 6270 ft 167 kts 265°
2026-05-07 08:33 38.19704 109.71946 6221 ft 167 kts 265°
2026-05-07 08:33 38.19699 109.70484 6167 ft 166 kts 281°
2026-05-07 08:33 38.20042 109.69093 6113 ft 165 kts 298°
2026-05-07 08:33 38.20706 109.67912 6046 ft 165 kts 316°
2026-05-07 08:34 38.21626 109.67049 5974 ft 165 kts 334°
2026-05-07 08:34 38.22673 109.66472 5913 ft 164 kts 337°
2026-05-07 08:34 38.23721 109.65897 5920 ft 164 kts 336°
2026-05-07 08:34 38.24755 109.65329 5920 ft 164 kts 336°
2026-05-07 08:35 38.25808 109.64747 5910 ft 162 kts 336°
2026-05-07 08:35 38.26797 109.64200 5679 ft 154 kts 336°
2026-05-07 08:35 38.27768 109.63666 5444 ft 151 kts 336°
2026-05-07 08:35 38.28733 109.63147 5182 ft 150 kts 338°
2026-05-07 08:36 38.29691 109.62596 4942 ft 149 kts 335°
2026-05-07 08:36 38.30638 109.62051 4745 ft 150 kts 336°
2026-05-07 08:36 38.31583 109.61539 4554 ft 149 kts 337°
2026-05-07 08:36 38.32539 109.61017 4354 ft 150 kts 336°
2026-05-07 08:37 38.33486 109.60478 4143 ft 149 kts 336°
2026-05-07 08:37 38.34450 109.59951 3942 ft 149 kts 337°
2026-05-07 08:37 38.35334 109.59467 3884 ft 122 kts 335°
2026-05-07 08:37 38.35954 109.59120 3884 ft 72 kts 336°
2026-05-07 08:38 38.36310 109.58923 3881 ft 42 kts 336°
2026-05-07 08:38 38.36501 109.58821 3882 ft 27 kts 338°
2026-05-07 08:38 38.36672 109.58728 3885 ft 27 kts 335°
2026-05-07 08:38 38.36841 109.58631 3886 ft 22 kts 336°
2026-05-07 08:39 38.36956 109.58577 3886 ft 19 kts 347°
2026-05-07 08:39 38.37039 109.58623 3886 ft 8 kts 65°
2026-05-07 08:39 38.37066 109.58699 3885 ft 11 kts 65°
2026-05-07 08:39 38.37021 109.58761 3886 ft 12 kts 157°
2026-05-07 08:40 38.36935 109.58807 3886 ft 15 kts 157°
2026-05-07 08:40 38.36832 109.58867 3886 ft 18 kts 155°
2026-05-07 08:40 38.36711 109.58934 3885 ft 20 kts 156°
2026-05-07 08:40 38.36626 109.59000 3885 ft 12 kts 104°
2026-05-07 08:41 38.36654 109.59099 3886 ft 11 kts 66°
2026-05-07 08:41 38.36684 109.59187 3886 ft 7 kts 69°
2026-05-07 08:41 38.36654 109.59243 3886 ft 10 kts 154°
2026-05-07 08:41 38.36583 109.59284 3884 ft 13 kts 156°
2026-05-07 08:42 38.36496 109.59331 3886 ft 14 kts 156°
2026-05-07 08:42 38.36410 109.59379 3886 ft 12 kts 156°
2026-05-07 08:42 38.36336 109.59421 3886 ft 7 kts 156°
2026-05-07 08:42 38.36300 109.59461 3886 ft 7 kts 103°
2026-05-07 08:43 38.36314 109.59509 3886 ft 5 kts 64°
2026-05-07 08:43 38.36327 109.59543 3886 ft 0 kts 64°
2026-05-07 08:43 38.36327 109.59545 3886 ft 0 kts 67°